sat.trackr.live / text

‹ back to catalog

STARLINK-33925

NORAD 63793 · 2025-091U

PAYLOAD ACTIVE UNKNOWN

§ Identity

Operator
Country
US
Launch date
2025-05-02
Launch site
AFETR
Launch vehicle
Mass (kg)
RCS (m²)

Purposes: comms

External: N2YO · Heavens-Above · Gunter

§ Orbital elements

Epoch: 2026-09-19T16:26:54.036960Z

Period
94.27 min
Inclination
43.0036°
Eccentricity
0.0001694
Mean motion
15.27591679 rev/d
Perigee alt
481.9 km
Apogee alt
484.2 km
Semi-major
6,861.2 km
B*
5.4883e-4
RAAN
36.7377°
Arg perigee
280.2647°
Mean anomaly
79.8013°
Rev number
7,868

§ Raw data

STARLINK-339251 63793U 25091U   26262.68534765  .00014876  00000+0  54883-3 0  99932 63793  43.0036  36.7377 0001694 280.2647  79.8013 15.27591679 78687

JSON: /api/v1/satellites/63793 · /tle

For live sub-satellite position, see the globe view (requires WebGL).

§ Visibility from observer

Set your observer location to see the next 7 days of passes ≥ 10°. The values pass through the URL so the page stays shareable.

No JS? Fill the form by hand. The geolocation button needs JavaScript.